星链-5959 (STARLINK-5959 )

导读 | 豆包AI

STARLINK-5959是美国SpaceX公司于2023年5月10日发射的星链卫星,星链是全球知名低轨宽带卫星互联网星座,旨在为全球基础设施匮乏地区提供高速、低延迟宽带接入服务。该卫星部署于近地轨道,是SpaceX星链组网计划的组成部分,助力推进星链星座全球覆盖与网络扩容,支撑偏远地区互联网接入等应用场景。

基本信息
目录编号:
56454
目录名称:
STARLINK-5959
国际标识:
2023-064G
轨道中心:
EARTH
卫星名称:
星链-5959
卫星全名:
星链-5959 (STARLINK-5959 )
卫星状态:
在轨 (已飞行1040 天)
发射日期:
2023-05-10 UTC
国别 :
美国 (US)
星等 :
--
轨道信息
数据来源 国际轨道数据
星历时间: 2026-03-15T21:08:21+0800
8小时前
查看轨道信息
半长轴: 6950.212km
偏心率: 0.0003295
轨道倾角: 69.999°
近地点辐角 270.235°
升交点赤经 129.684°
平近点角 89.843°
近地点: 569.784km
远地点: 574.366km
周期: 96.107分钟
每日圈数: 14.98324
详细信息
固有亮度:
5
最大亮度:
2.5
卫星平台:
Starlink v1.5
覆盖范围:
全球
运营商:
太空探索技术公司
运营商所在国:
美国
制造商(研发单位):
太空探索技术公司
制造商所在国:
美国
使用方式:
暂无
卫星简介
星链(Starlink)计划是由太空探索技术公司(SpaceX)提出的一个巨型低轨卫星互联网星座项目,计划在2019年至2024年间在太空搭建由约1.2万颗卫星组成的“星链”网络,其中1584颗将部署在地球上空550千米处的近地轨道,并从2020年开始工作。该卫星仍在工作。
2D轨道图
3D轨道图
轨道高度分析图
轨道倾角分析图
轨道综合分析图
查看轨道综合分析图